Weather History for Kuantan, Malaysia

Change the Weather History Date:

Thursday, December 12, 2013

  Actual Average Record
Temperature  
Mean Temperature 80 °F -  
Max Temperature 87 °F 84 °F - ()
Min Temperature 74 °F 72 °F - ()
Cooling Degree Days 16    
Growing Degree Days 30 (Base 50)    
Moisture  
Dew Point 75 °F    
Average Humidity 85    
Maximum Humidity 100    
Minimum Humidity 54    
Precipitation  
Precipitation 0.08 in 0.60 in - ()
Sea Level Pressure  
Sea Level Pressure 29.77 in    
Wind  
Wind Speed 4 mph ()    
Max Wind Speed 9 mph    
Max Gust Speed -    
Visibility 5.8 miles    
Events Rain    
T = Trace of Precipitation, MM = Missing Value Source: Averaged Metar Reports

Daily Weather History Graph

Daily Weather History Graph

Search for Another Location

Airport:

Trip Planner

Search our weather history database for the weather conditions in past years. The results will help you decide how hot, cold, wet, or windy it might be!

Date:

Astronomy

Dec. 12, 2013 Rise Set
Actual Time 7:03 AM MYT 6:58 PM MYT
Civil Twilight 6:41 AM MYT 7:20 PM MYT
Nautical Twilight 6:14 AM MYT 7:46 PM MYT
Astronomical Twilight 5:48 AM MYT 8:12 PM MYT
Moon 3:03 PM MYT (12/12) 2:43 AM MYT (12/12)
Length of Visible Light 12h 39m
Length of Day
11h 54m
Waxing Gibbous, 76% of the Moon is Illuminated
Dec 12
Waxing Gibbous
Dec 17
Full
Dec 25
Last Quarter
Jan 1
New
Jan 8
First Quarter

Hourly Weather History & Observations

Time (MYT) Temp. Heat Index Dew Point Humidity Pressure Visibility Wind Dir Wind Speed Gust Speed Precip Events Conditions
12:00 AM 77.0 °F - 75.2 °F 94% 29.80 in 6.2 mi North 2.3 mph - N/A   Mostly Cloudy
1:00 AM 77.0 °F - 75.2 °F 94% 29.80 in 6.2 mi North 2.3 mph - N/A   Mostly Cloudy
2:00 AM 76 °F - 75 °F 95% 29.79 in 7 mi NNE 2.3 mph - -   Haze
2:00 AM 77.0 °F - 75.2 °F 94% 29.77 in 6.2 mi NNE 2.3 mph - N/A   Mostly Cloudy
3:00 AM 77.0 °F - 75.2 °F 94% 29.77 in 6.2 mi North 2.3 mph - N/A   Mostly Cloudy
4:00 AM 75.2 °F - 73.4 °F 94% 29.74 in 6.2 mi North 2.3 mph - N/A   Mostly Cloudy
5:00 AM 75 °F - 74 °F 95% 29.74 in 7 mi NNE 2.3 mph - -   Haze
5:00 AM 75.2 °F - 73.4 °F 94% 29.74 in 6.2 mi NNE 2.3 mph - N/A   Mostly Cloudy
6:00 AM 75.2 °F - 73.4 °F 94% 29.74 in 6.2 mi North 3.5 mph - N/A   Mostly Cloudy
7:00 AM 75.2 °F - 73.4 °F 94% 29.77 in 4.3 mi NNE 1.2 mph - N/A   Mostly Cloudy
8:00 AM 76 °F - 74 °F 93% 29.80 in 2 mi North 4.6 mph - - Rain Light Rain
8:00 AM 75.2 °F - 75.2 °F 100% 29.80 in 2.5 mi North 4.6 mph - N/A Rain Light Rain
9:00 AM 77.0 °F - 75.2 °F 94% 29.80 in 2.5 mi North 8.1 mph - N/A Rain Light Rain
10:00 AM 78.8 °F - 75.2 °F 89% 29.83 in 5.0 mi North 9.2 mph - N/A   Mostly Cloudy
11:00 AM 80 °F - 76 °F 84% 29.83 in 7 mi NNW 9.2 mph - -   Haze
11:00 AM 80.6 °F 87.1 °F 77.0 °F 89% 29.83 in 6.2 mi NNW 9.2 mph - N/A   Mostly Cloudy
12:00 PM 82.4 °F 90.9 °F 77.0 °F 84% 29.80 in 6.2 mi NNW 9.2 mph - N/A   Mostly Cloudy
1:00 PM 82.4 °F 90.9 °F 77.0 °F 84% 29.77 in 6.2 mi NNW 9.2 mph - N/A   Mostly Cloudy
2:00 PM 85 °F - 76 °F 69% 29.76 in 9 mi NNW 9.2 mph - -   Haze
2:00 PM 84.2 °F 94.1 °F 77.0 °F 79% 29.74 in 6.2 mi NNW 9.2 mph - N/A   Mostly Cloudy
3:00 PM 86.0 °F 95.1 °F 75.2 °F 70% 29.71 in 6.2 mi North 6.9 mph - N/A   Mostly Cloudy
4:00 PM 87.8 °F 95.6 °F 73.4 °F 62% 29.68 in 6.2 mi ENE 8.1 mph - N/A   Mostly Cloudy
5:00 PM 87 °F - 72 °F 54% 29.70 in 5 mi NNE 8.1 mph - -   Haze
5:00 PM 86.0 °F 93.4 °F 73.4 °F 66% 29.68 in 5.0 mi NNE 8.1 mph - N/A   Mostly Cloudy
6:00 PM 84.2 °F 90.9 °F 73.4 °F 70% 29.71 in 5.0 mi NE 6.9 mph - N/A   Mostly Cloudy
7:00 PM 82.4 °F 89.5 °F 75.2 °F 79% 29.74 in 6.2 mi NNE 4.6 mph - N/A   Mostly Cloudy
8:00 PM 80 °F - 74 °F 79% 29.77 in 7 mi North 3.5 mph - -   Haze
8:00 PM 78.8 °F - 75.2 °F 89% 29.77 in 6.2 mi North 3.5 mph - N/A   Mostly Cloudy
9:00 PM 78.8 °F - 75.2 °F 89% 29.80 in 6.2 mi North 3.5 mph - N/A   Mostly Cloudy
10:00 PM 78.8 °F - 75.2 °F 89% 29.80 in 6.2 mi NNE 3.5 mph - N/A   Mostly Cloudy
11:00 PM 77 °F - 74 °F 88% 29.83 in 6 mi North 2.3 mph - -   Haze
11:00 PM 77.0 °F - 73.4 °F 89% 29.83 in 6.2 mi North 2.3 mph - N/A   Mostly Cloudy